Change the Weather History Date:

Wednesday, December 12, 2012

  Actual Average (KFLG) Record (KFLG)
Temperature  
Mean Temperature 38 °F 30 °F  
Max Temperature 48 °F 43 °F 64 °F (1921)
Min Temperature 28 °F 17 °F -16 °F (1961)
Degree Days  
Heating Degree Days 27 35  
Month to date heating degree days 413  
Since 1 July heating degree days 2145  
Cooling Degree Days 0 0  
Month to date cooling degree days 0  
Year to date cooling degree days 117  
Moisture  
Dew Point 9 °F    
Average Humidity 32    
Maximum Humidity 47    
Minimum Humidity 22    
Precipitation  
Precipitation 0.00 in 0.06 in 0.88 in (1937)
Month to date precipitation 0.68  
Year to date precipitation 20.67  
Snow  
Snow 0.00 in 0.60 in 14.00 in (1932)
Month to date snowfall 6.2  
Since 1 July snowfall 18.4  
Snow Depth -    
Sea Level Pressure  
Sea Level Pressure 30.07 in    
Wind  
Wind Speed 11 mph (SSE)    
Max Wind Speed 23 mph    
Max Gust Speed 31 mph    
Visibility 10 miles    
Events      
T = Trace of Precipitation, MM = Missing Value Source: NWS Daily Summary

Daily Weather History Graph

Daily Weather History Graph

Search for Another Location

Airport or City:

Trip Planner

Search our weather history database for the weather conditions in past years. The results will help you decide how hot, cold, wet, or windy it might be!

Date:

Astronomy

Dec. 12, 2012 Rise Set
Actual Time 7:28 AM MST 5:17 PM MST
Civil Twilight 7:00 AM MST 5:45 PM MST
Nautical Twilight 6:28 AM MST 6:17 PM MST
Astronomical Twilight 5:57 AM MST 6:47 PM MST
Moon 6:37 AM MST (12/12) 4:57 PM MST (12/12)
Length of Visible Light 10h 44m
Length of Day
9h 48m
Waning Crescent, 0% of the Moon is Illuminated
Dec 12
Waning Crescent
Dec 13
New
Dec 19
First Quarter
Dec 28
Full
Jan 4
Last Quarter

Hourly Weather History & Observations

Time (MST) Temp. Windchill Dew Point Humidity Pressure Visibility Wind Dir Wind Speed Gust Speed Precip Events Conditions
12:15 AM 30.2 °F 22.6 °F 10.4 °F 44% 30.12 in 10.0 mi SE 8.1 mph - N/A   Clear
12:35 AM 30.2 °F 21.3 °F 10.4 °F 44% 30.12 in 10.0 mi SE 10.4 mph - N/A   Clear
12:55 AM 32.0 °F 23.0 °F 10.4 °F 41% 30.12 in 10.0 mi SE 11.5 mph - N/A   Clear
1:15 AM 32.0 °F 23.6 °F 10.4 °F 41% 30.11 in 10.0 mi SE 10.4 mph - N/A   Clear
1:35 AM 32.0 °F 23.0 °F 10.4 °F 41% 30.11 in 10.0 mi SE 11.5 mph - N/A   Clear
2:15 AM 32.0 °F 23.6 °F 10.4 °F 41% 30.10 in 10.0 mi ESE 10.4 mph - N/A   Clear
2:35 AM 30.2 °F 21.3 °F 10.4 °F 44% 30.10 in 10.0 mi ESE 10.4 mph - N/A   Clear
2:55 AM 30.2 °F 21.9 °F 10.4 °F 44% 30.10 in 10.0 mi SE 9.2 mph - N/A   Clear
3:15 AM 28.4 °F 19.1 °F 10.4 °F 47% 30.09 in 10.0 mi SE 10.4 mph - N/A   Clear
3:35 AM 28.4 °F 20.4 °F 10.4 °F 47% 30.09 in 10.0 mi ESE 8.1 mph - N/A   Clear
3:55 AM 30.2 °F 24.3 °F 12.2 °F 47% 30.08 in 10.0 mi ESE 5.8 mph - N/A   Clear
4:15 AM 32.0 °F 23.6 °F 10.4 °F 41% 30.07 in 10.0 mi SE 10.4 mph - N/A   Clear
4:35 AM 32.0 °F 24.8 °F 10.4 °F 41% 30.06 in 10.0 mi SSE 8.1 mph - N/A   Clear
4:55 AM 32.0 °F 24.8 °F 10.4 °F 41% 30.06 in 10.0 mi SSE 8.1 mph - N/A   Clear
5:15 AM 32.0 °F 24.2 °F 10.4 °F 41% 30.05 in 10.0 mi SE 9.2 mph - N/A   Clear
5:35 AM 32.0 °F 23.0 °F 10.4 °F 41% 30.05 in 10.0 mi SE 11.5 mph 16.1 mph N/A   Clear
5:55 AM 32.0 °F 24.2 °F 10.4 °F 41% 30.06 in 10.0 mi South 9.2 mph - N/A   Clear
6:15 AM 33.8 °F 26.4 °F 10.4 °F 38% 30.05 in 10.0 mi South 9.2 mph - N/A   Clear
6:35 AM 32.0 °F 24.2 °F 10.4 °F 41% 30.06 in 10.0 mi South 9.2 mph - N/A   Clear
6:55 AM 33.8 °F 27.0 °F 10.4 °F 38% 30.06 in 10.0 mi SSE 8.1 mph - N/A   Clear
7:15 AM 33.8 °F 25.8 °F 10.4 °F 38% 30.07 in 10.0 mi SE 10.4 mph - N/A   Clear
7:35 AM 32.0 °F 22.5 °F 10.4 °F 41% 30.07 in 10.0 mi ESE 12.7 mph 18.4 mph N/A   Clear
7:55 AM 32.0 °F 25.6 °F 10.4 °F 41% 30.09 in 10.0 mi SE 6.9 mph - N/A   Clear
8:15 AM 35.6 °F 29.9 °F 10.4 °F 35% 30.09 in 10.0 mi SSE 6.9 mph - N/A   Clear
8:35 AM 37.4 °F 30.8 °F 10.4 °F 33% 30.09 in 10.0 mi SE 9.2 mph - N/A   Clear
8:55 AM 37.4 °F 30.8 °F 10.4 °F 33% 30.09 in 10.0 mi SE 9.2 mph - N/A   Clear
9:15 AM 39.2 °F 33.0 °F 10.4 °F 31% 30.09 in 10.0 mi SSE 9.2 mph - N/A   Clear
9:35 AM 41.0 °F 35.2 °F 10.4 °F 29% 30.10 in 10.0 mi South 9.2 mph - N/A   Clear
9:55 AM 44.6 °F 37.2 °F 14.0 °F 29% 30.10 in 10.0 mi South 17.3 mph 24.2 mph N/A   Clear
10:15 AM 44.6 °F 35.9 °F 12.2 °F 27% 30.11 in 10.0 mi South 23.0 mph 29.9 mph N/A   Clear
10:35 AM 44.6 °F 37.2 °F 10.4 °F 25% 30.11 in 10.0 mi South 17.3 mph 27.6 mph N/A   Clear
10:55 AM 44.6 °F 36.9 °F 10.4 °F 25% 30.11 in 10.0 mi South 18.4 mph 27.6 mph N/A   Clear
11:15 AM 44.6 °F 36.4 °F 10.4 °F 25% 30.11 in 10.0 mi South 20.7 mph 25.3 mph N/A   Clear
11:35 AM 46.4 °F 39.0 °F 10.4 °F 23% 30.10 in 10.0 mi South 19.6 mph 29.9 mph N/A   Clear
11:55 AM 46.4 °F 38.5 °F 10.4 °F 23% 30.09 in 10.0 mi South 21.9 mph 29.9 mph N/A   Clear
12:15 PM 48.2 °F - 10.4 °F 22% 30.08 in 10.0 mi South 20.7 mph 28.8 mph N/A   Clear
12:35 PM 46.4 °F 39.2 °F 10.4 °F 23% 30.07 in 10.0 mi SSW 18.4 mph 28.8 mph N/A   Clear
12:55 PM 48.2 °F - 10.4 °F 22% 30.06 in 10.0 mi SSW 17.3 mph 26.5 mph N/A   Clear
1:15 PM 46.4 °F 39.2 °F 10.4 °F 23% 30.06 in 10.0 mi South 18.4 mph 27.6 mph N/A   Clear
1:35 PM 46.4 °F 39.2 °F 10.4 °F 23% 30.06 in 10.0 mi South 18.4 mph 29.9 mph N/A   Clear
1:55 PM 46.4 °F 39.8 °F 8.6 °F 22% 30.05 in 10.0 mi SSW 16.1 mph 31.1 mph N/A   Clear
2:15 PM 46.4 °F 38.7 °F 8.6 °F 22% 30.04 in 10.0 mi South 20.7 mph 27.6 mph N/A   Clear
2:35 PM 46.4 °F 38.5 °F 8.6 °F 22% 30.04 in 10.0 mi South 21.9 mph 27.6 mph N/A   Clear
2:55 PM 44.6 °F 37.4 °F 8.6 °F 23% 30.04 in 10.0 mi South 16.1 mph 25.3 mph N/A   Clear
3:15 PM 44.6 °F 38.1 °F 8.6 °F 23% 30.04 in 10.0 mi South 13.8 mph 24.2 mph N/A   Clear
3:35 PM 44.6 °F 37.8 °F 8.6 °F 23% 30.04 in 10.0 mi South 15.0 mph 19.6 mph N/A   Clear
3:55 PM 44.6 °F 38.1 °F 8.6 °F 23% 30.03 in 10.0 mi South 13.8 mph 23.0 mph N/A   Clear
4:15 PM 44.6 °F 38.4 °F 8.6 °F 23% 30.03 in 10.0 mi South 12.7 mph 25.3 mph N/A   Clear
4:35 PM 42.8 °F 36.2 °F 8.6 °F 25% 30.03 in 10.0 mi SSE 12.7 mph 21.9 mph N/A   Clear
4:55 PM 42.8 °F 36.2 °F 8.6 °F 25% 30.02 in 10.0 mi South 12.7 mph 18.4 mph N/A   Clear
5:55 PM 39.2 °F 31.2 °F 8.6 °F 28% 30.03 in 10.0 mi SSE 13.8 mph - N/A   Clear
6:15 PM 39.2 °F 31.6 °F 8.6 °F 28% 30.03 in 10.0 mi South 12.7 mph 17.3 mph N/A   Clear
6:35 PM 37.4 °F 28.9 °F 8.6 °F 30% 30.04 in 10.0 mi SSE 13.8 mph - N/A   Clear
6:55 PM 37.4 °F 29.8 °F 8.6 °F 30% 30.04 in 10.0 mi SSE 11.5 mph - N/A   Clear
7:15 PM 35.6 °F 28.0 °F 8.6 °F 33% 30.05 in 10.0 mi SE 10.4 mph - N/A   Clear
7:35 PM 35.6 °F 27.1 °F 8.6 °F 33% 30.04 in 10.0 mi SSE 12.7 mph - N/A   Clear
7:55 PM 39.2 °F 31.2 °F 8.6 °F 28% 30.05 in 10.0 mi South 13.8 mph - N/A   Clear
8:15 PM 37.4 °F 30.3 °F 8.6 °F 30% 30.05 in 10.0 mi SSE 10.4 mph - N/A   Clear
8:35 PM 35.6 °F 28.0 °F 8.6 °F 33% 30.05 in 10.0 mi SSE 10.4 mph - N/A   Clear
8:55 PM 35.6 °F 28.6 °F 8.6 °F 33% 30.05 in 10.0 mi SSE 9.2 mph - N/A   Clear
9:15 PM 35.6 °F 29.2 °F 6.8 °F 30% 30.05 in 10.0 mi SSE 8.1 mph - N/A   Clear
9:35 PM 33.8 °F 27.0 °F 6.8 °F 32% 30.05 in 10.0 mi SE 8.1 mph - N/A   Clear
9:55 PM 33.8 °F 25.8 °F 6.8 °F 32% 30.05 in 10.0 mi ESE 10.4 mph - N/A   Clear
10:15 PM 32.0 °F 24.2 °F 6.8 °F 35% 30.05 in 10.0 mi SE 9.2 mph - N/A   Clear
10:35 PM 32.0 °F 24.2 °F 6.8 °F 35% 30.05 in 10.0 mi SE 9.2 mph - N/A   Clear
10:55 PM 32.0 °F 24.8 °F 6.8 °F 35% 30.05 in 10.0 mi SE 8.1 mph - N/A   Clear
11:15 PM 33.8 °F 27.0 °F 6.8 °F 32% 30.05 in 10.0 mi SSE 8.1 mph - N/A   Clear
11:35 PM 35.6 °F 29.2 °F 6.8 °F 30% 30.05 in 10.0 mi SE 8.1 mph - N/A   Clear
11:55 PM 37.4 °F 30.8 °F 5.0 °F 26% 30.04 in 10.0 mi SSE 9.2 mph - N/A   Clear